GW2002 Weather Reports


time (UTC)temp
F
wind
direction
speed
knots
gust
knots
rain 1hr
in
rain 24hr
in
rain mn
in
humidity
%
barometer
mb
20260507210633 70 212 3.5 7.8 0.00 0.00 0.00 40 1010.0
20260507210129 70 215 1.7 7.8 0.00 0.00 0.00 40 1010.3
20260507205626 70 173 6.1 7.0 0.00 0.00 0.00 40 1010.2
20260507205122 70 201 1.7 7.8 0.00 0.00 0.00 40 1010.4
20260507204619 69 221 3.5 4.3 0.00 0.00 0.00 43 1010.3
20260507204116 69 204 5.2 12.2 0.00 0.00 0.00 40 1010.6
20260507203614 69 224 7.8 11.3 0.00 0.00 0.00 40 1010.8
20260507203111 69 188 10.4 14.8 0.00 0.00 0.00 40 1010.6
20260507202607 69 315 2.6 7.0 0.00 0.00 0.00 42 1010.9
20260507202103 69 204 7.0 9.6 0.00 0.00 0.00 42 1011.2
20260507201558 69 157 3.5 13.0 0.00 0.00 0.00 43 1011.1
20260507201055 69 185 5.2 9.6 0.00 0.00 0.00 44 1010.9
20260507200551 68 197 4.3 9.6 0.00 0.00 0.00 43 1011.2
20260507200047 68 199 4.3 9.6 0.00 0.00 0.00 41 1011.2
20260507195545 68 175 3.5 10.4 0.00 0.00 0.00 42 1011.2
20260507195042 68 166 3.5 12.2 0.00 0.00 0.00 42 1011.4
20260507194538 67 176 9.6 12.2 0.00 0.00 0.00 43 1011.5
20260507194034 67 154 0.9 7.8 0.00 0.00 0.00 45 1011.6
20260507193532 67 137 6.1 13.0 0.00 0.00 0.00 44 1011.8
20260507193029 67 169 4.3 14.8 0.00 0.00 0.00 43 1011.8
20260507192525 67 350 3.5 13.0 0.00 0.00 0.00 46 1011.7
20260507192022 67 21 3.5 8.7 0.00 0.00 0.00 44 1011.8
20260507191517 66 232 2.6 7.8 0.00 0.00 0.00 44 1012.0
20260507191014 66 185 6.1 10.4 0.00 0.00 0.00 45 1012.2
20260507190512 66 168 6.1 10.4 0.00 0.00 0.00 46 1012.2
20260507190010 66 175 11.3 11.3 0.00 0.00 0.00 44 1012.1
20260507185508 66 97 1.7 18.2 0.00 0.00 0.00 46 1012.1
20260507185004 66 147 4.3 8.7 0.00 0.00 0.00 44 1012.2
20260507184503 66 191 1.7 10.4 0.00 0.00 0.00 46 1012.3
20260507184000 66 182 6.1 8.7 0.00 0.00 0.00 46 1012.3
20260507183456 66 231 1.7 7.0 0.00 0.00 0.00 45 1012.3
20260507182953 65 200 6.1 14.8 0.00 0.00 0.00 45 1012.4
20260507182449 66 346 3.5 14.8 0.00 0.00 0.00 46 1012.4
20260507181945 65 241 6.1 10.4 0.00 0.00 0.00 47 1012.7
20260507181442 66 208 11.3 13.0 0.00 0.00 0.00 43 1012.7
20260507180938 66 178 6.1 15.6 0.00 0.00 0.00 45 1012.7
20260507180435 65 206 1.7 10.4 0.00 0.00 0.00 47 1012.8
20260507175931 66 173 7.8 13.0 0.00 0.00 0.00 44 1012.9
20260507175428 66 192 9.6 11.3 0.00 0.00 0.00 44 1013.2
20260507174926 66 312 1.7 8.7 0.00 0.00 0.00 46 1013.4
20260507174423 66 189 5.2 9.6 0.00 0.00 0.00 45 1013.2
20260507173920 65 193 3.5 6.1 0.00 0.00 0.00 47 1013.3
20260507173417 65 230 1.7 7.8 0.00 0.00 0.00 46 1013.3
20260507172914 65 202 4.3 14.8 0.00 0.00 0.00 44 1013.7
20260507172411 64 208 3.5 12.2 0.00 0.00 0.00 45 1013.6
20260507171907 65 172 13.0 13.9 0.00 0.00 0.00 46 1013.9
20260507171403 64 3 3.5 13.0 0.00 0.00 0.00 47 1013.6
20260507170900 64 201 3.5 7.8 0.00 0.00 0.00 47 1013.5
20260507170357 64 238 2.6 6.1 0.00 0.00 0.00 46 1013.6
20260507165853 64 206 6.1 10.4 0.00 0.00 0.00 45 1014.2
20260507165349 64 199 7.8 8.7 0.00 0.00 0.00 47 1013.8
20260507164845 64 244 1.7 11.3 0.00 0.00 0.00 50 1014.2
20260507164342 64 193 7.8 7.8 0.00 0.00 0.00 45 1014.1
20260507163839 63 195 7.0 9.6 0.00 0.00 0.00 47 1014.1
20260507163337 63 200 5.2 12.2 0.00 0.00 0.00 45 1014.5
20260507162833 63 185 6.1 16.5 0.00 0.00 0.00 46 1014.2
20260507162329 64 187 13.0 13.9 0.00 0.00 0.00 46 1014.3
20260507161826 64 220 3.5 5.2 0.00 0.00 0.00 49 1014.3
20260507161322 63 50 3.5 4.3 0.00 0.00 0.00 48 1014.1
20260507160819 63 195 1.7 7.8 0.00 0.00 0.00 47 1014.4
20260507160315 63 219 6.1 7.8 0.00 0.00 0.00 48 1014.4
20260507155811 62 221 4.3 7.8 0.00 0.00 0.00 48 1014.8
20260507155307 62 211 1.7 8.7 0.00 0.00 0.00 49 1014.5
20260507154804 61 213 2.6 7.8 0.00 0.00 0.00 50 1014.3
20260507154301 61 207 3.5 13.9 0.00 0.00 0.00 50 1014.6
20260507153758 62 221 4.3 4.3 0.00 0.00 0.00 50 1014.7
20260507153254 61 348 3.5 6.1 0.00 0.00 0.00 51 1014.8
20260507152751 62 184 2.6 9.6 0.00 0.00 0.00 50 1015.0
20260507152248 61 291 0.9 7.0 0.00 0.00 0.00 52 1014.9
20260507151743 61 215 3.5 5.2 0.00 0.00 0.00 51 1014.9
20260507151240 60 250 4.3 8.7 0.00 0.00 0.00 53 1014.9
20260507150737 60 279 2.6 4.3 0.00 0.00 0.00 51 1014.9
20260507150234 60 213 0.9 5.2 0.00 0.00 0.00 55 1015.1
20260507145730 60 173 7.0 9.6 0.00 0.00 0.00 51 1015.3
20260507145226 60 236 1.7 6.1 0.00 0.00 0.00 52 1015.4
20260507144723 59 302 2.6 7.8 0.00 0.00 0.00 54 1015.2
20260507144221 59 184 4.3 6.1 0.00 0.00 0.00 53 1015.3
20260507143717 59 281 2.6 8.7 0.00 0.00 0.00 55 1015.0
20260507143215 59 238 2.6 6.1 0.00 0.00 0.00 56 1015.1
20260507142710 58 205 4.3 5.2 0.00 0.00 0.00 55 1015.1
20260507142207 58 259 0.9 8.7 0.00 0.00 0.00 56 1015.1
20260507141703 58 298 2.6 5.2 0.00 0.00 0.00 56 1015.1
20260507141201 58 304 1.7 7.0 0.00 0.00 0.00 58 1015.3
20260507140657 57 185 7.0 7.8 0.00 0.00 0.00 58 1015.4
20260507140154 57 217 1.7 7.0 0.00 0.00 0.00 60 1015.4
20260507135651 56 184 5.2 10.4 0.00 0.00 0.00 61 1015.2
20260507135149 55 185 4.3 7.8 0.00 0.00 0.00 62 1015.2
20260507134645 55 186 4.3 8.7 0.00 0.00 0.00 63 1015.2
20260507134141 54 196 4.3 9.6 0.00 0.00 0.00 63 1015.3
20260507133637 54 188 4.3 8.7 0.00 0.00 0.00 64 1015.1
20260507133135 54 182 6.1 7.8 0.00 0.00 0.00 65 1015.2
20260507132632 53 186 1.7 7.0 0.00 0.00 0.00 67 1015.0
20260507132128 52 168 4.3 7.0 0.00 0.00 0.00 67 1015.3
20260507131624 52 308 1.7 7.8 0.00 0.00 0.00 67 1015.0
20260507131122 52 180 2.6 3.5 0.00 0.00 0.00 69 1015.3
20260507130618 51 202 2.6 3.5 0.00 0.00 0.00 69 1015.5
20260507130117 50 193 1.7 3.5 0.00 0.00 0.00 70 1015.2
20260507125615 50 194 6.1 7.0 0.00 0.00 0.00 70 1015.5
20260507125112 50 175 0.9 4.3 0.00 0.00 0.00 69 1015.4
20260507124608 49 222 2.6 5.2 0.00 0.00 0.00 70 1015.4
20260507124107 49 328 0.9 4.3 0.00 0.00 0.00 72 1015.8
20260507123604 49 208 1.7 5.2 0.00 0.00 0.00 71 1015.7
20260507123101 49 202 1.7 2.6 0.00 0.00 0.00 72 1015.8
20260507122556 48 212 4.3 5.2 0.00 0.00 0.00 73 1015.5
20260507122052 47 180 3.5 4.3 0.00 0.00 0.00 76 1015.7
20260507121548 45 183 2.6 4.3 0.00 0.00 0.00 79 1015.8
20260507121044 45 183 1.7 5.2 0.00 0.00 0.00 79 1015.8
20260507120540 45 191 4.3 5.2 0.00 0.00 0.00 79 1015.7
20260507120038 44 171 5.2 7.8 0.00 0.00 0.00 80 1015.5
20260507115534 44 200 1.7 4.3 0.00 0.00 0.00 80 1015.5
20260507115030 44 171 1.7 4.3 0.00 0.00 0.00 80 1015.7
20260507114526 44 180 1.7 4.3 0.00 0.00 0.00 80 1015.4
20260507114023 44 191 2.6 4.3 0.00 0.00 0.00 80 1015.4
20260507113520 44 176 1.7 3.5 0.00 0.00 0.00 79 1015.4
20260507113017 44 197 1.7 4.3 0.00 0.00 0.00 79 1015.4
20260507112515 44 167 1.7 2.6 0.00 0.00 0.00 80 1015.4
20260507112012 44 198 2.6 3.5 0.00 0.00 0.00 79 1015.7
20260507111510 44 184 1.7 2.6 0.00 0.00 0.00 79 1015.4
20260507111005 43 193 2.6 2.6 0.00 0.00 0.00 80 1015.3
20260507110502 43 187 2.6 2.6 0.00 0.00 0.00 80 1015.3
20260507105958 44 181 1.7 2.6 0.00 0.00 0.00 79 1015.2
20260507105455 44 185 1.7 2.6 0.00 0.00 0.00 78 1015.3
20260507104951 44 189 2.6 2.6 0.00 0.00 0.00 78 1015.1
20260507104449 44 187 2.6 3.5 0.00 0.00 0.00 77 1015.3
20260507103944 44 202 0.9 3.5 0.00 0.00 0.00 77 1015.1
20260507103441 44 188 1.7 2.6 0.00 0.00 0.00 77 1015.3
20260507102937 44 180 0.9 3.5 0.00 0.00 0.00 76 1015.0
20260507102434 44 183 2.6 3.5 0.00 0.00 0.00 75 1015.3
20260507101931 44 185 2.6 3.5 0.00 0.00 0.00 75 1015.1
20260507101426 44 172 1.7 3.5 0.00 0.00 0.00 75 1015.5
20260507100922 44 181 2.6 3.5 0.00 0.00 0.00 74 1015.4
20260507100420 44 183 2.6 3.5 0.00 0.00 0.00 74 1015.5
20260507095918 44 190 1.7 3.5 0.00 0.00 0.00 74 1015.5
20260507095415 44 197 1.7 2.6 0.00 0.00 0.00 73 1015.4
20260507094912 44 189 3.5 3.5 0.00 0.00 0.00 73 1015.5
20260507094408 44 185 2.6 3.5 0.00 0.00 0.00 73 1015.5
20260507093905 45 190 2.6 3.5 0.00 0.00 0.00 73 1015.5
20260507093404 45 186 2.6 3.5 0.00 0.00 0.00 72 1015.4
20260507092902 45 192 1.7 4.3 0.00 0.00 0.00 71 1015.8
20260507092357 45 193 2.6 3.5 0.00 0.00 0.00 70 1015.8
20260507091854 45 185 2.6 3.5 0.00 0.00 0.00 70 1015.8
20260507091350 45 190 2.6 3.5 0.00 0.00 0.00 69 1016.0
20260507090846 45 183 2.6 3.5 0.00 0.00 0.00 69 1015.9
20260507090343 46 182 2.6 3.5 0.00 0.00 0.00 68 1015.8
20260507085840 46 194 2.6 3.5 0.00 0.00 0.00 67 1015.8
20260507085336 46 186 1.7 4.3 0.00 0.00 0.00 67 1015.8
20260507084834 46 201 2.6 3.5 0.00 0.00 0.00 67 1016.0
20260507084330 46 182 1.7 4.3 0.00 0.00 0.00 67 1015.8
20260507083828 46 187 3.5 3.5 0.00 0.00 0.00 66 1015.7
20260507083324 46 195 2.6 3.5 0.00 0.00 0.00 66 1015.7
20260507082820 46 192 2.6 3.5 0.00 0.00 0.00 66 1016.0
20260507082316 46 187 1.7 3.5 0.00 0.00 0.00 65 1016.2
20260507081814 46 193 2.6 3.5 0.00 0.00 0.00 66 1016.2
20260507081309 46 189 2.6 2.6 0.00 0.00 0.00 66 1016.0
20260507080806 46 194 2.6 4.3 0.00 0.00 0.00 65 1016.1
20260507080302 46 188 3.5 3.5 0.00 0.00 0.00 65 1016.0
20260507075757 46 191 1.7 3.5 0.00 0.00 0.00 65 1016.1
20260507075254 46 174 2.6 3.5 0.00 0.00 0.00 65 1015.9
20260507074750 46 194 1.7 3.5 0.00 0.00 0.00 64 1016.0
20260507074249 47 191 1.7 3.5 0.00 0.00 0.00 64 1016.0
20260507073745 47 180 2.6 3.5 0.00 0.00 0.00 64 1016.1
20260507073242 47 180 2.6 3.5 0.00 0.00 0.00 64 1016.0
20260507072740 47 195 1.7 4.3 0.00 0.00 0.00 63 1016.2
20260507072237 47 194 2.6 2.6 0.00 0.00 0.00 63 1016.2
20260507071734 47 180 1.7 3.5 0.00 0.00 0.00 63 1016.2
20260507071230 47 188 3.5 3.5 0.00 0.00 0.00 62 1016.0
20260507070727 47 179 1.7 3.5 0.00 0.00 0.00 61 1016.3
20260507070224 47 190 2.6 2.6 0.00 0.00 0.00 61 1016.4
20260507065721 48 183 1.7 3.5 0.00 0.00 0.00 61 1016.5
20260507065218 48 182 2.6 2.6 0.00 0.00 0.00 61 1016.5
20260507064715 48 187 1.7 3.5 0.00 0.00 0.00 61 1016.4
20260507064214 48 180 1.7 2.6 0.00 0.00 0.00 60 1016.3
20260507063711 48 197 0.9 2.6 0.00 0.00 0.00 60 1016.5
20260507063207 49 189 1.7 2.6 0.00 0.00 0.00 59 1016.6
20260507062704 49 176 0.9 1.7 0.00 0.00 0.00 59 1016.7
20260507062202 49 200 1.7 3.5 0.00 0.00 0.00 57 1016.6
20260507061700 50 190 1.7 1.7 0.00 0.00 0.00 56 1016.8
20260507061157 50 198 1.7 2.6 0.00 0.00 0.00 55 1016.9
20260507060655 50 119 0.0 2.6 0.00 0.00 0.00 54 1016.7
20260507060151 50 242 0.9 0.9 0.00 0.00 0.00 53 1016.7
20260507055647 50 206 1.7 1.7 0.00 0.00 0.00 53 1016.8
20260507055143 50 202 0.9 1.7 0.00 0.00 0.00 53 1017.1
20260507054639 51 217 2.6 3.5 0.00 0.00 0.00 51 1016.7
20260507054136 51 300 0.0 2.6 0.00 0.00 0.00 51 1016.7
20260507053634 51 213 2.6 2.6 0.00 0.00 0.00 51 1016.9
20260507053132 51 194 3.5 3.5 0.00 0.00 0.00 50 1016.9
20260507052631 51 194 1.7 2.6 0.00 0.00 0.00 51 1016.7
20260507052126 50 182 3.5 3.5 0.00 0.00 0.00 53 1016.6
20260507051624 50 200 1.7 2.6 0.00 0.00 0.00 55 1016.7
20260507051121 49 182 1.7 5.2 0.00 0.00 0.00 55 1016.5
20260507050618 48 197 2.6 3.5 0.00 0.00 0.00 61 1016.7
20260507050114 48 191 1.7 1.7 0.00 0.00 0.00 63 1016.8
20260507045611 48 198 1.7 1.7 0.00 0.01 0.01 66 1016.7
20260507045108 48 188 1.7 2.6 0.00 0.01 0.01 65 1016.8
20260507044604 47 180 1.7 2.6 0.00 0.01 0.01 66 1016.6
20260507044102 47 180 2.6 2.6 0.00 0.01 0.01 70 1016.8
20260507043557 47 200 3.5 3.5 0.00 0.01 0.01 71 1016.6
20260507043055 47 182 2.6 2.6 0.00 0.01 0.01 71 1016.8
20260507042550 47 191 1.7 4.3 0.00 0.01 0.01 71 1016.7
20260507042046 47 183 2.6 3.5 0.00 0.01 0.01 71 1016.6
20260507041543 46 187 2.6 3.5 0.00 0.01 0.01 71 1016.7
20260507041040 46 181 2.6 3.5 0.00 0.01 0.01 73 1016.8
20260507040537 46 185 2.6 3.5 0.00 0.01 0.01 73 1016.7
20260507040033 46 186 2.6 3.5 0.00 0.01 0.01 72 1017.1
20260507035529 45 177 1.7 3.5 0.00 0.01 0.01 72 1017.0
20260507035026 45 191 3.5 3.5 0.00 0.01 0.01 74 1017.1
20260507034522 45 192 3.5 4.3 0.00 0.01 0.01 73 1016.8
20260507034020 45 186 2.6 4.3 0.00 0.01 0.01 73 1017.0
20260507033518 45 185 3.5 3.5 0.00 0.01 0.01 73 1017.1
20260507033015 45 188 3.5 4.3 0.00 0.01 0.01 72 1017.1
20260507032512 44 176 2.6 3.5 0.00 0.01 0.01 71 1017.1
20260507032008 44 194 3.5 3.5 0.00 0.01 0.01 72 1017.0
20260507031504 44 187 3.5 4.3 0.00 0.01 0.01 72 1016.9
20260507031002 44 184 3.5 3.5 0.00 0.01 0.01 73 1017.0
20260507030458 44 182 2.6 4.3 0.00 0.01 0.01 74 1017.2
20260507025956 44 182 2.6 3.5 0.00 0.01 0.01 72 1016.9
20260507025453 45 188 2.6 3.5 0.00 0.01 0.01 71 1016.9
20260507024950 45 188 3.5 4.3 0.00 0.01 0.01 70 1016.9
20260507024448 45 192 4.3 4.3 0.00 0.01 0.01 71 1017.0
20260507023943 45 181 3.5 4.3 0.00 0.01 0.01 71 1016.7
20260507023440 46 187 3.5 3.5 0.00 0.01 0.01 72 1016.7
20260507022938 46 188 3.5 3.5 0.00 0.01 0.01 71 1016.7
20260507022435 46 187 3.5 4.3 0.00 0.01 0.01 70 1016.8
20260507021930 46 192 3.5 4.3 0.00 0.01 0.01 70 1016.7
20260507021425 47 192 3.5 4.3 0.00 0.01 0.01 70 1016.5
20260507020924 47 190 3.5 3.5 0.00 0.01 0.01 69 1016.5
20260507020420 47 195 3.5 3.5 0.00 0.01 0.01 69 1016.5
20260507015917 48 190 3.5 3.5 0.00 0.01 0.01 67 1016.7
20260507015415 48 185 2.6 3.5 0.00 0.01 0.01 67 1016.4
20260507014912 48 181 1.7 1.7 0.00 0.01 0.01 66 1016.3
20260507014408 49 185 0.9 1.7 0.00 0.01 0.01 65 1016.5
20260507013905 50 192 1.7 2.6 0.00 0.01 0.01 64 1016.3
20260507013402 50 179 0.0 0.9 0.00 0.01 0.01 63 1016.3
20260507012859 51 199 0.0 1.7 0.00 0.01 0.01 60 1016.3
20260507012355 51 232 0.0 0.0 0.00 0.01 0.01 58 1016.3
20260507011853 51 345 0.0 0.0 0.00 0.01 0.01 51 1016.1
20260507011349 52 40 0.0 0.0 0.00 0.01 0.01 56 1016.4
20260507010849 53 326 0.0 1.7 0.00 0.01 0.01 54 1016.2
20260507010345 54 145 0.0 0.0 0.00 0.01 0.01 50 1016.2
20260507005842 54 131 0.0 0.0 0.00 0.01 0.01 48 1016.2
20260507005339 55 158 0.0 0.0 0.00 0.01 0.01 47 1016.2
20260507004836 56 170 0.0 1.7 0.00 0.01 0.01 46 1016.1
20260507004333 57 198 1.7 1.7 0.00 0.01 0.01 44 1016.2
20260507003830 58 185 1.7 2.6 0.00 0.01 0.01 43 1016.2
20260507003326 59 186 1.7 2.6 0.00 0.01 0.01 41 1016.3
20260507002820 59 196 2.6 4.3 0.00 0.01 0.01 33 1016.1
20260507002317 59 183 3.5 5.2 0.00 0.01 0.01 34 1016.1
20260507001815 60 189 2.6 6.1 0.00 0.01 0.01 31 1016.1
20260507001312 60 198 4.3 5.2 0.00 0.01 0.01 30 1016.1
20260507000808 60 192 2.6 5.2 0.00 0.01 0.01 32 1016.1
20260507000306 60 210 6.1 8.7 0.00 0.01 0.01 30 1016.3
20260506235800 61 196 3.5 3.5 0.00 0.01 0.01 30 1016.2
20260506235256 61 209 1.7 2.6 0.00 0.01 0.01 29 1016.3
20260506234753 61 195 0.0 2.6 0.00 0.01 0.01 28 1016.3
20260506234250 62 180 1.7 4.3 0.00 0.01 0.01 29 1016.0
20260506233748 62 6 2.6 6.1 0.00 0.01 0.01 28 1016.5
20260506233244 63 271 1.7 6.1 0.00 0.01 0.01 28 1016.2
20260506232741 63 235 2.6 4.3 0.00 0.01 0.01 28 1016.3
20260506232236 63 226 1.7 5.2 0.00 0.01 0.01 28 1016.2
20260506231733 63 303 1.7 3.5 0.00 0.01 0.01 29 1016.4
20260506231231 63 211 6.1 7.0 0.00 0.01 0.01 28 1016.3
20260506230728 62 227 1.7 4.3 0.00 0.01 0.01 29 1016.2
20260506230225 62 225 3.5 7.0 0.00 0.01 0.01 28 1016.4
20260506225721 62 223 1.7 2.6 0.00 0.01 0.01 30 1016.3
20260506225219 62 223 4.3 4.3 0.00 0.01 0.01 29 1016.2
20260506224715 62 268 1.7 7.0 0.00 0.01 0.01 30 1016.4
20260506224212 62 347 1.7 1.7 0.00 0.01 0.01 29 1016.2
20260506223708 62 246 2.6 6.1 0.00 0.01 0.01 29 1016.2
20260506223204 62 256 2.6 5.2 0.00 0.01 0.01 28 1016.3
20260506222701 62 321 4.3 4.3 0.00 0.01 0.01 28 1016.2
20260506222156 62 199 1.7 5.2 0.00 0.01 0.01 28 1016.6
20260506221655 62 176 1.7 8.7 0.00 0.01 0.01 31 1016.5
20260506221153 62 214 7.0 9.6 0.00 0.01 0.01 29 1016.5
20260506220649 61 312 1.7 4.3 0.00 0.01 0.01 30 1016.3
20260506220144 61 230 5.2 7.0 0.00 0.01 0.01 29 1016.2
20260506215641 61 206 1.7 9.6 0.00 0.01 0.01 31 1016.3
20260506215136 61 269 1.7 3.5 0.00 0.01 0.01 29 1016.6
20260506214634 61 197 4.3 5.2 0.00 0.01 0.01 29 1016.6
20260506214131 60 167 2.6 3.5 0.00 0.01 0.01 29 1016.7
20260506213630 60 205 2.6 6.1 0.00 0.01 0.01 31 1016.7
20260506213126 60 191 3.5 7.0 0.00 0.01 0.01 30 1016.6
20260506212624 60 167 1.7 4.3 0.00 0.01 0.01 30 1016.8
20260506212118 61 179 3.5 3.5 0.00 0.01 0.01 31 1016.7
20260506211614 61 215 11.3 12.2 0.00 0.01 0.01 30 1017.0
20260506211111 61 194 6.1 7.0 0.00 0.01 0.01 31 1016.9